Starlink 1800

operational
NORAD ID: 46700 Int'l Des: 2020-073 Owner: SPXS Country: US Constellation: starlink
LEOCIRCULARSTARLINK_TYPE

关于 Starlink 1800

正在加载描述...

实时位置

正在加载3D地球...

即将过境

高度历史

Altitude vs Time

uPlot chart will show altitude changes over time

两行轨道根数

1 46700U 20073AG 25354.79188891 .00034559 00000-0 68382-3 0 9995
2 46700 53.0482 234.7714 0015492 102.1991 258.0751 15.46671421285250
Epoch: Dec 20, 2025 • Age: 7 hours

当前状态

高度 429.7 km
速度 7.65 km/s
星下点 -11.43°S, 58.48°W
发射日期 Oct 18, 2020
运行时间 5.1 years
类型 internet

技术详情

分类 Payload
质量 260.00 kg
干质量 248.00 kg
总质量 260.00 kg
长度 0.20 m
直径 2.80 m
跨度 9.00 m
形状 Box + pan
制造商 SPXS
平台类型 Starlink
阶段状态 In Orbit
所有者/国家 SPXS/US

大型星座

Loading constellations...